| time (UTC) | temp F | wind direction | speed MPH | gust MPH | rain 1hr in | rain 24hr in | rain mn in | humidity % | barometer mb |
| 20260505021941 | 53 | 213 | 9.0 | 10.0 | 0.00 | 0.00 | 0.00 | 77 | 1011.2 |
| 20260505021437 | 53 | 221 | 10.0 | 11.0 | 0.00 | 0.00 | 0.00 | 77 | 1011.5 |
| 20260505020933 | 53 | 219 | 9.0 | 11.0 | 0.00 | 0.00 | 0.00 | 77 | 1011.4 |
| 20260505020428 | 53 | 227 | 12.0 | 13.0 | 0.00 | 0.00 | 0.00 | 76 | 1011.3 |
| 20260505015925 | 53 | 210 | 13.0 | 14.0 | 0.00 | 0.00 | 0.00 | 76 | 1011.4 |
| 20260505015422 | 54 | 202 | 8.0 | 9.0 | 0.00 | 0.00 | 0.00 | 76 | 1011.4 |
| 20260505014920 | 54 | 227 | 11.0 | 13.0 | 0.00 | 0.00 | 0.00 | 76 | 1011.5 |
| 20260505014416 | 54 | 215 | 10.0 | 10.0 | 0.00 | 0.00 | 0.00 | 76 | 1011.4 |
| 20260505013913 | 54 | 217 | 11.0 | 13.0 | 0.00 | 0.00 | 0.00 | 76 | 1011.3 |
| 20260505013410 | 54 | 217 | 9.0 | 9.0 | 0.00 | 0.00 | 0.00 | 75 | 1011.4 |
| 20260505012908 | 54 | 212 | 9.0 | 11.0 | 0.00 | 0.00 | 0.00 | 75 | 1011.3 |
| 20260505012406 | 54 | 204 | 7.0 | 8.0 | 0.00 | 0.00 | 0.00 | 75 | 1011.1 |
| 20260505011902 | 54 | 212 | 10.0 | 11.0 | 0.00 | 0.00 | 0.00 | 75 | 1011.1 |
| 20260505011359 | 54 | 214 | 11.0 | 13.0 | 0.00 | 0.00 | 0.00 | 74 | 1010.9 |
| 20260505010855 | 54 | 202 | 15.0 | 16.0 | 0.00 | 0.00 | 0.00 | 73 | 1010.9 |
| 20260505010351 | 54 | 209 | 13.0 | 14.0 | 0.00 | 0.00 | 0.00 | 74 | 1011.0 |
| 20260505005847 | 55 | 215 | 9.0 | 11.0 | 0.00 | 0.00 | 0.00 | 74 | 1010.8 |
| 20260505005344 | 55 | 211 | 11.0 | 13.0 | 0.00 | 0.00 | 0.00 | 73 | 1010.4 |
| 20260505004842 | 55 | 212 | 16.0 | 17.0 | 0.00 | 0.00 | 0.00 | 72 | 1010.5 |
| 20260505004338 | 55 | 218 | 13.0 | 15.0 | 0.00 | 0.00 | 0.00 | 72 | 1010.4 |
| 20260505003835 | 55 | 238 | 14.0 | 16.0 | 0.00 | 0.00 | 0.00 | 72 | 1010.2 |
| 20260505003333 | 55 | 215 | 17.0 | 19.0 | 0.00 | 0.00 | 0.00 | 72 | 1010.0 |
| 20260505002828 | 56 | 211 | 13.0 | 15.0 | 0.00 | 0.00 | 0.00 | 72 | 1010.4 |
| 20260505002325 | 56 | 234 | 19.0 | 24.0 | 0.00 | 0.00 | 0.00 | 70 | 1010.1 |
| 20260505001824 | 56 | 228 | 14.0 | 15.0 | 0.00 | 0.00 | 0.00 | 70 | 1010.0 |
| 20260505001320 | 56 | 225 | 16.0 | 18.0 | 0.00 | 0.00 | 0.00 | 70 | 1009.7 |
| 20260505000818 | 56 | 229 | 19.0 | 21.0 | 0.00 | 0.00 | 0.00 | 69 | 1009.8 |
| 20260505000315 | 56 | 224 | 15.0 | 18.0 | 0.00 | 0.00 | 0.00 | 68 | 1009.8 |
| 20260504235812 | 56 | 227 | 17.0 | 18.0 | 0.00 | 0.00 | 0.00 | 67 | 1009.6 |
| 20260504235309 | 57 | 242 | 14.0 | 17.0 | 0.00 | 0.00 | 0.00 | 67 | 1009.5 |
| 20260504234806 | 57 | 235 | 17.0 | 18.0 | 0.00 | 0.00 | 0.00 | 66 | 1009.6 |
| 20260504234303 | 57 | 236 | 20.0 | 22.0 | 0.00 | 0.00 | 0.00 | 64 | 1009.4 |
| 20260504233759 | 57 | 223 | 17.0 | 18.0 | 0.00 | 0.00 | 0.00 | 65 | 1009.4 |
| 20260504233255 | 57 | 229 | 20.0 | 23.0 | 0.00 | 0.00 | 0.00 | 62 | 1009.3 |
| 20260504232752 | 57 | 234 | 20.0 | 22.0 | 0.00 | 0.00 | 0.00 | 63 | 1009.2 |
| 20260504232249 | 57 | 246 | 17.0 | 18.0 | 0.00 | 0.00 | 0.00 | 63 | 1009.3 |
| 20260504231746 | 58 | 227 | 24.0 | 26.0 | 0.00 | 0.00 | 0.00 | 60 | 1009.0 |
| 20260504231242 | 58 | 226 | 21.0 | 22.0 | 0.00 | 0.00 | 0.00 | 59 | 1009.0 |
| 20260504230738 | 58 | 222 | 17.0 | 19.0 | 0.00 | 0.00 | 0.00 | 59 | 1009.0 |
| 20260504230237 | 58 | 205 | 21.0 | 23.0 | 0.00 | 0.00 | 0.00 | 59 | 1009.0 |
| 20260504225736 | 58 | 218 | 18.0 | 19.0 | 0.00 | 0.00 | 0.00 | 60 | 1008.8 |
| 20260504225231 | 58 | 216 | 20.0 | 22.0 | 0.00 | 0.00 | 0.00 | 59 | 1009.0 |
| 20260504224729 | 58 | 214 | 20.0 | 22.0 | 0.00 | 0.00 | 0.00 | 59 | 1008.9 |
| 20260504224226 | 59 | 230 | 19.0 | 22.0 | 0.00 | 0.00 | 0.00 | 57 | 1008.9 |
| 20260504223722 | 58 | 216 | 19.0 | 21.0 | 0.00 | 0.00 | 0.00 | 60 | 1009.0 |
| 20260504223217 | 59 | 208 | 18.0 | 19.0 | 0.00 | 0.00 | 0.00 | 61 | 1008.9 |
| 20260504222715 | 59 | 202 | 19.0 | 22.0 | 0.00 | 0.00 | 0.00 | 60 | 1008.8 |
| 20260504222212 | 60 | 213 | 16.0 | 18.0 | 0.00 | 0.00 | 0.00 | 58 | 1008.8 |
| 20260504221709 | 61 | 230 | 23.0 | 24.0 | 0.00 | 0.00 | 0.00 | 51 | 1008.7 |
| 20260504221206 | 61 | 233 | 15.0 | 17.0 | 0.00 | 0.00 | 0.00 | 53 | 1008.7 |
| 20260504220703 | 60 | 224 | 19.0 | 21.0 | 0.00 | 0.00 | 0.00 | 52 | 1008.6 |
| 20260504220200 | 61 | 230 | 15.0 | 16.0 | 0.00 | 0.00 | 0.00 | 56 | 1008.6 |
| 20260504215656 | 60 | 211 | 18.0 | 19.0 | 0.00 | 0.00 | 0.00 | 55 | 1008.8 |
| 20260504215154 | 62 | 230 | 13.0 | 16.0 | 0.00 | 0.00 | 0.00 | 53 | 1008.7 |
| 20260504214649 | 61 | 230 | 21.0 | 23.0 | 0.00 | 0.00 | 0.00 | 49 | 1008.5 |
| 20260504214146 | 61 | 232 | 20.0 | 21.0 | 0.00 | 0.00 | 0.00 | 51 | 1008.4 |
| 20260504213643 | 61 | 219 | 21.0 | 23.0 | 0.00 | 0.00 | 0.00 | 54 | 1008.6 |
| 20260504213139 | 61 | 207 | 17.0 | 18.0 | 0.00 | 0.00 | 0.00 | 54 | 1008.4 |
| 20260504212636 | 62 | 208 | 19.0 | 22.0 | 0.00 | 0.00 | 0.00 | 53 | 1008.5 |
| 20260504212133 | 62 | 219 | 18.0 | 21.0 | 0.00 | 0.00 | 0.00 | 51 | 1008.4 |
| 20260504211630 | 62 | 221 | 15.0 | 16.0 | 0.00 | 0.00 | 0.00 | 53 | 1008.5 |
| 20260504211126 | 62 | 224 | 20.0 | 22.0 | 0.00 | 0.00 | 0.00 | 52 | 1008.4 |
| 20260504210624 | 62 | 203 | 20.0 | 21.0 | 0.00 | 0.00 | 0.00 | 51 | 1008.4 |
| 20260504210120 | 63 | 222 | 16.0 | 17.0 | 0.00 | 0.00 | 0.00 | 51 | 1008.3 |
| 20260504205618 | 63 | 234 | 18.0 | 21.0 | 0.00 | 0.00 | 0.00 | 48 | 1008.4 |
| 20260504205116 | 63 | 230 | 19.0 | 21.0 | 0.00 | 0.00 | 0.00 | 47 | 1008.3 |
| 20260504204614 | 63 | 230 | 21.0 | 24.0 | 0.00 | 0.00 | 0.00 | 49 | 1008.4 |
| 20260504204112 | 64 | 230 | 14.0 | 15.0 | 0.00 | 0.00 | 0.00 | 48 | 1008.1 |
| 20260504203610 | 64 | 223 | 19.0 | 22.0 | 0.00 | 0.00 | 0.00 | 46 | 1008.3 |
| 20260504203102 | 64 | 229 | 15.0 | 17.0 | 0.00 | 0.00 | 0.00 | 47 | 1008.2 |
| 20260504202557 | 64 | 245 | 14.0 | 18.0 | 0.00 | 0.00 | 0.00 | 44 | 1008.3 |
| 20260504202054 | 64 | 251 | 18.0 | 21.0 | 0.00 | 0.00 | 0.00 | 45 | 1008.2 |
| 20260504201551 | 63 | 232 | 20.0 | 22.0 | 0.00 | 0.00 | 0.00 | 45 | 1008.1 |
| 20260504201049 | 64 | 234 | 17.0 | 18.0 | 0.00 | 0.00 | 0.00 | 46 | 1008.3 |
| 20260504200545 | 64 | 238 | 15.0 | 17.0 | 0.00 | 0.00 | 0.00 | 44 | 1008.2 |
| 20260504200042 | 64 | 269 | 17.0 | 19.0 | 0.00 | 0.00 | 0.00 | 45 | 1008.1 |
| 20260504195538 | 64 | 227 | 19.0 | 22.0 | 0.00 | 0.00 | 0.00 | 47 | 1008.2 |
| 20260504195035 | 64 | 207 | 14.0 | 17.0 | 0.00 | 0.00 | 0.00 | 46 | 1008.3 |
| 20260504194531 | 63 | 236 | 14.0 | 17.0 | 0.00 | 0.00 | 0.00 | 44 | 1008.4 |
| 20260504194027 | 63 | 248 | 16.0 | 18.0 | 0.00 | 0.00 | 0.00 | 46 | 1008.3 |
| 20260504193524 | 63 | 235 | 17.0 | 21.0 | 0.00 | 0.00 | 0.00 | 47 | 1008.2 |
| 20260504193023 | 63 | 238 | 13.0 | 15.0 | 0.00 | 0.00 | 0.00 | 48 | 1008.2 |
| 20260504192520 | 62 | 256 | 15.0 | 19.0 | 0.00 | 0.00 | 0.00 | 47 | 1008.2 |
| 20260504192018 | 63 | 218 | 19.0 | 21.0 | 0.00 | 0.00 | 0.00 | 46 | 1008.3 |
| 20260504191516 | 63 | 302 | 15.0 | 18.0 | 0.00 | 0.00 | 0.00 | 45 | 1008.3 |
| 20260504191012 | 63 | 232 | 22.0 | 25.0 | 0.00 | 0.00 | 0.00 | 43 | 1008.4 |
| 20260504190508 | 63 | 233 | 20.0 | 22.0 | 0.00 | 0.00 | 0.00 | 44 | 1008.4 |
| 20260504190004 | 63 | 235 | 21.0 | 26.0 | 0.00 | 0.00 | 0.00 | 46 | 1008.5 |
| 20260504185501 | 63 | 244 | 19.0 | 24.0 | 0.00 | 0.00 | 0.00 | 44 | 1008.4 |
| 20260504184958 | 63 | 235 | 29.0 | 31.0 | 0.00 | 0.00 | 0.00 | 41 | 1008.6 |
| 20260504184453 | 62 | 220 | 23.0 | 26.0 | 0.00 | 0.00 | 0.00 | 45 | 1008.4 |
| 20260504183949 | 63 | 231 | 26.0 | 30.0 | 0.00 | 0.00 | 0.00 | 41 | 1008.6 |
| 20260504183446 | 63 | 236 | 26.0 | 27.0 | 0.00 | 0.00 | 0.00 | 44 | 1008.4 |
| 20260504182944 | 63 | 234 | 15.0 | 19.0 | 0.00 | 0.00 | 0.00 | 43 | 1008.7 |
| 20260504182441 | 63 | 220 | 21.0 | 25.0 | 0.00 | 0.00 | 0.00 | 45 | 1008.6 |
| 20260504181938 | 63 | 235 | 26.0 | 27.0 | 0.00 | 0.00 | 0.00 | 42 | 1008.5 |
| 20260504181435 | 63 | 227 | 23.0 | 26.0 | 0.00 | 0.00 | 0.00 | 42 | 1008.9 |
| 20260504180934 | 63 | 294 | 18.0 | 21.0 | 0.00 | 0.00 | 0.00 | 42 | 1008.8 |
| 20260504180432 | 64 | 209 | 14.0 | 16.0 | 0.00 | 0.00 | 0.00 | 42 | 1008.9 |
| 20260504175930 | 64 | 224 | 24.0 | 30.0 | 0.00 | 0.00 | 0.00 | 40 | 1008.8 |
| 20260504175427 | 64 | 254 | 20.0 | 23.0 | 0.00 | 0.00 | 0.00 | 38 | 1008.7 |
| 20260504174925 | 64 | 229 | 26.0 | 30.0 | 0.00 | 0.00 | 0.00 | 39 | 1008.8 |
| 20260504174422 | 64 | 229 | 23.0 | 26.0 | 0.00 | 0.00 | 0.00 | 38 | 1008.8 |
| 20260504173919 | 63 | 270 | 10.0 | 13.0 | 0.00 | 0.00 | 0.00 | 41 | 1008.7 |
| 20260504173415 | 64 | 226 | 17.0 | 21.0 | 0.00 | 0.00 | 0.00 | 41 | 1008.7 |
| 20260504172913 | 63 | 219 | 22.0 | 26.0 | 0.00 | 0.00 | 0.00 | 40 | 1008.7 |
| 20260504172409 | 64 | 229 | 21.0 | 24.0 | 0.00 | 0.00 | 0.00 | 40 | 1008.7 |
| 20260504171905 | 64 | 267 | 8.0 | 14.0 | 0.00 | 0.00 | 0.00 | 38 | 1008.9 |
| 20260504171403 | 63 | 293 | 4.0 | 4.0 | 0.00 | 0.00 | 0.00 | 41 | 1009.0 |
| 20260504170900 | 63 | 247 | 15.0 | 17.0 | 0.00 | 0.00 | 0.00 | 39 | 1009.0 |
| 20260504170356 | 63 | 267 | 19.0 | 22.0 | 0.00 | 0.00 | 0.00 | 41 | 1009.0 |
| 20260504160315 | 62 | 256 | 12.0 | 15.0 | 0.00 | 0.00 | 0.00 | 40 | 1009.6 |
| 20260504150739 | 62 | 256 | 11.0 | 13.0 | 0.00 | 0.00 | 0.00 | 44 | 1010.1 |
| 20260504150236 | 63 | 276 | 5.0 | 8.0 | 0.00 | 0.00 | 0.00 | 45 | 1010.3 |
| 20260504141206 | 60 | 301 | 9.0 | 11.0 | 0.00 | 0.00 | 0.00 | 47 | 1010.8 |
| 20260504140703 | 59 | 214 | 8.0 | 9.0 | 0.00 | 0.00 | 0.00 | 51 | 1010.7 |
| 20260504140158 | 59 | 232 | 7.0 | 8.0 | 0.00 | 0.00 | 0.00 | 51 | 1010.6 |
| 20260504130626 | 59 | 256 | 5.0 | 8.0 | 0.00 | 0.00 | 0.00 | 48 | 1011.1 |
| 20260504130123 | 58 | 9 | 5.0 | 7.0 | 0.00 | 0.00 | 0.00 | 49 | 1011.3 |
| 20260504110514 | 50 | 253 | 9.0 | 10.0 | 0.00 | 0.00 | 0.00 | 63 | 1011.1 |
| 20260504100436 | 48 | 240 | 7.0 | 8.0 | 0.00 | 0.00 | 0.00 | 68 | 1010.8 |
| 20260504081829 | 48 | 246 | 6.0 | 7.0 | 0.00 | 0.00 | 0.00 | 61 | 1010.5 |
| 20260504081326 | 48 | 247 | 8.0 | 8.0 | 0.00 | 0.00 | 0.00 | 58 | 1010.5 |
| 20260504080822 | 48 | 225 | 6.0 | 7.0 | 0.00 | 0.00 | 0.00 | 62 | 1010.5 |
| 20260504080320 | 48 | 242 | 5.0 | 6.0 | 0.00 | 0.00 | 0.00 | 62 | 1010.4 |
| 20260504070246 | 47 | 215 | 1.0 | 2.0 | 0.00 | 0.00 | 0.00 | 57 | 1010.5 |
| 20260504060207 | 46 | 96 | 1.0 | 1.0 | 0.00 | 0.00 | 0.00 | 57 | 1010.2 |
| 20260504050635 | 46 | 248 | 2.0 | 3.0 | 0.00 | 0.00 | 0.00 | 57 | 1010.3 |
| 20260504050132 | 45 | 62 | 1.0 | 2.0 | 0.00 | 0.00 | 0.00 | 59 | 1010.4 |
| 20260504045629 | 46 | 68 | 0.0 | 1.0 | 0.00 | 0.00 | 0.00 | 57 | 1010.3 |
| 20260504045124 | 46 | 33 | 2.0 | 2.0 | 0.00 | 0.00 | 0.00 | 55 | 1010.3 |
| 20260504044622 | 46 | 43 | 2.0 | 2.0 | 0.00 | 0.00 | 0.00 | 59 | 1010.5 |
| 20260504044118 | 46 | 27 | 2.0 | 2.0 | 0.00 | 0.00 | 0.00 | 59 | 1010.5 |
| 20260504043615 | 46 | 254 | 2.0 | 3.0 | 0.00 | 0.00 | 0.00 | 62 | 1010.5 |
| 20260504043113 | 46 | 303 | 2.0 | 2.0 | 0.00 | 0.00 | 0.00 | 61 | 1010.4 |
| 20260504042610 | 46 | 193 | 1.0 | 2.0 | 0.00 | 0.00 | 0.00 | 62 | 1010.5 |
| 20260504042107 | 46 | 36 | 1.0 | 2.0 | 0.00 | 0.00 | 0.00 | 62 | 1010.4 |
| 20260504041602 | 46 | 69 | 1.0 | 1.0 | 0.00 | 0.00 | 0.00 | 60 | 1010.4 |
| 20260504041059 | 46 | 62 | 1.0 | 2.0 | 0.00 | 0.00 | 0.00 | 63 | 1010.3 |
| 20260504040556 | 46 | 235 | 2.0 | 3.0 | 0.00 | 0.00 | 0.00 | 63 | 1010.3 |
| 20260504040053 | 46 | 250 | 3.0 | 3.0 | 0.00 | 0.00 | 0.00 | 63 | 1010.5 |
| 20260504035549 | 46 | 116 | 2.0 | 2.0 | 0.00 | 0.00 | 0.00 | 62 | 1010.2 |
| 20260504035045 | 46 | 36 | 1.0 | 1.0 | 0.00 | 0.00 | 0.00 | 63 | 1010.4 |
| 20260504034544 | 47 | 42 | 2.0 | 2.0 | 0.00 | 0.00 | 0.00 | 61 | 1010.2 |
| 20260504034040 | 47 | 269 | 3.0 | 4.0 | 0.00 | 0.00 | 0.00 | 60 | 1010.3 |
| 20260504033538 | 48 | 240 | 4.0 | 4.0 | 0.00 | 0.00 | 0.00 | 58 | 1010.1 |
| 20260504033035 | 48 | 229 | 5.0 | 6.0 | 0.00 | 0.00 | 0.00 | 58 | 1010.0 |
| 20260504032532 | 48 | 253 | 6.0 | 7.0 | 0.00 | 0.00 | 0.00 | 57 | 1010.1 |
| 20260504032029 | 48 | 247 | 6.0 | 7.0 | 0.00 | 0.00 | 0.00 | 59 | 1010.0 |
| 20260504031526 | 48 | 242 | 7.0 | 8.0 | 0.00 | 0.00 | 0.00 | 56 | 1010.0 |
| 20260504031022 | 48 | 226 | 6.0 | 7.0 | 0.00 | 0.00 | 0.00 | 57 | 1010.1 |
| 20260504030520 | 48 | 242 | 5.0 | 6.0 | 0.00 | 0.00 | 0.00 | 57 | 1009.7 |
| 20260504030016 | 48 | 222 | 6.0 | 7.0 | 0.00 | 0.00 | 0.00 | 56 | 1009.8 |
| 20260504025513 | 48 | 251 | 6.0 | 7.0 | 0.00 | 0.00 | 0.00 | 61 | 1009.7 |
| 20260504025009 | 48 | 245 | 5.0 | 6.0 | 0.00 | 0.00 | 0.00 | 61 | 1009.8 |
| 20260504024507 | 48 | 253 | 4.0 | 6.0 | 0.00 | 0.00 | 0.00 | 57 | 1009.9 |
| 20260504024004 | 48 | 228 | 5.0 | 6.0 | 0.00 | 0.00 | 0.00 | 58 | 1009.8 |
| 20260504023500 | 48 | 214 | 3.0 | 3.0 | 0.00 | 0.00 | 0.00 | 57 | 1009.9 |
| 20260504022956 | 48 | 222 | 4.0 | 4.0 | 0.00 | 0.00 | 0.00 | 60 | 1009.8 |
| 20260504022452 | 48 | 214 | 6.0 | 7.0 | 0.00 | 0.00 | 0.00 | 57 | 1009.9 |